#timestamp,LO_Frequency,Hit,StdDev 
1627826415.5,286047000.5,P
1627826435.3,286047002.7,P
1627826455.2,286047001.5,N
1627826475.9,286047002.2,N
1627826495.7,286047000.4,N
1627826515.6,286047002.6,N
1627826535.4,286047002.2,N
1627826555.2,286046999.8,N
1627826575.1,286047002.2,N
1627826576.0,286047002.2,N
1627826595.8,286047001.0,N
1627826615.7,286046999.7,N
1627826635.5,286047002.0,N
1627826655.3,286047002.3,N
1627826675.2,286047001.3,N
1627826695.0,286047001.4,N
1627826695.9,286047001.4,N
1627826715.7,286047000.3,N
1627826735.6,286047000.6,N
1627826755.4,286046999.9,N
1627826775.3,286046999.7,N
1627826795.1,286046999.8,N
1627826796.0,286046999.8,N
1627826815.8,286047000.2,N
1627826835.7,286047000.0,N
1627826855.5,286046999.7,N
1627826875.3,286047002.7,N
1627826895.2,286047000.1,N
1627826915.0,286047002.8,N
1627826915.9,286047002.8,N
1627826935.8,286047000.2,N
1627826955.6,286046998.4,N
1627826975.4,286047000.2,N
1627826995.3,286047000.9,N
1627827015.1,286047001.1,N
1627827035.8,286046999.9,N
1627827055.7,286047000.0,N
1627827075.5,286047000.6,N
1627827095.3,286047001.2,N
1627827115.2,286046998.2,N
1627827135.0,286047001.1,N
1627827135.9,286047001.1,N
1627827155.8,286047001.0,N
1627827175.6,286046998.5,N
1627827195.4,286046998.6,N
1627827215.3,286046998.7,N
1627827235.1,286046998.1,N
1627827255.8,286047001.2,N
1627827275.7,286046998.9,N
1627827295.5,286046998.7,N
1627827315.4,286046998.1,N
1627827335.2,286046998.9,N
1627827355.0,286046999.3,N
1627827355.9,286046999.3,N
1627827375.8,286046998.6,N
1627827395.6,286046998.8,N
1627827415.4,286046998.9,N
1627827435.3,286046998.2,N
1627827455.1,286047002.8,N
1627827475.9,286046999.7,N
1627827495.7,286047000.4,N
1627827515.5,286047000.2,N
1627827535.4,286047000.6,N
1627827555.2,286046998.3,N
1627827575.0,286046998.5,N
1627827575.9,286046998.5,N
1627827595.8,286047001.2,N
1627827615.6,286046998.3,N
1627827635.5,286046998.8,N
1627827655.3,286047001.0,N
1627827675.1,286046999.8,N
1627827695.9,286047002.1,N
1627827715.7,286046999.9,N
1627827735.5,286047000.8,N
1627827755.4,286047000.7,N
1627827775.2,286046999.0,N
1627827795.0,286046999.2,N
1627827795.9,286046999.2,N
1627827815.8,286046996.5,Y
1627827835.6,286046999.5,P
1627827855.5,286046996.9,P
1627827875.3,286046996.7,N
1627827895.1,286046996.8,N
1627827915.9,286046997.2,N
1627827935.7,286046996.7,N
1627827955.5,286046996.7,N
1627827975.4,286046997.6,N
1627827995.2,286046997.7,N
1627828015.1,286046997.4,N
1627828016.0,286046997.4,N
1627828035.8,286046997.2,N
1627828055.6,286046997.1,Y
1627828075.5,286047001.2,P
1627828095.3,286046999.9,N
1627828115.1,286046998.5,N
1627828135.9,286047001.0,N
1627828155.7,286047001.2,N
1627828175.6,286047000.0,N
1627828195.4,286046998.6,N
1627828215.2,286047000.6,N
1627828235.1,286047002.1,N
1627828236.0,286047002.1,N
1627828255.8,286046999.7,N
1627828275.7,286047000.2,N
1627828295.5,286047002.4,N
1627828315.3,286047002.7,N
1627828335.2,286047001.0,N
1627828355.0,286047000.6,N
1627828355.9,286047000.6,N
1627828375.7,286047000.5,N
1627828395.6,286047002.1,N
1627828415.4,286047002.2,N
1627828435.3,286047002.5,N
1627828455.1,286047000.6,N
1627828456.0,286047000.6,N
1627828475.8,286047000.5,N
1627828495.7,286047001.8,N
1627828515.5,286047003.7,N
1627828535.3,286047004.7,Y
1627828555.2,286047003.0,P
1627828575.0,286047003.9,P
1627828575.9,286047003.9,P
1627828595.8,286047001.8,N
1627828615.6,286047002.5,N
1627828635.4,286047004.4,Y
1627828655.3,286047001.0,P
1627828675.1,286047000.2,N
1627828695.9,286047000.7,N
1627828715.7,286047000.1,N
1627828735.5,286046999.8,N
1627828755.4,286046999.7,N
1627828775.2,286047000.3,N
1627828795.0,286046999.9,N
1627828795.9,286046999.9,N
1627828815.8,286047000.4,N
1627828835.6,286047000.4,N
1627828855.5,286047001.0,N
1627828875.3,286047001.1,N
1627828895.1,286046998.1,N
1627828915.9,286046999.0,N
1627828935.7,286046998.5,N
1627828955.5,286047000.1,N
1627828975.4,286047001.2,N
1627828995.2,286047000.2,N
1627829015.1,286047001.2,N
1627829016.0,286047001.2,N
1627829035.8,286047000.3,N
1627829055.6,286046998.2,N
1627829075.5,286047000.5,N
1627829095.3,286047002.4,N
1627829115.1,286047002.1,N
1627829135.9,286047002.1,N
1627829155.7,286047001.9,N
1627829175.6,286047002.0,N
1627829195.4,286047002.1,N
1627829215.2,286047002.3,N
1627829235.1,286047001.6,N
1627829236.0,286047001.6,N
1627829255.8,286047001.7,N
1627829275.6,286047002.4,N
1627829295.5,286046998.2,N
1627829315.3,286046998.9,N
1627829335.2,286046999.3,N
1627829355.9,286046996.5,N
1627829375.7,286046998.8,N
1627829395.6,286046998.6,N
1627829415.4,286047000.5,N
1627829435.2,286047002.7,N
1627829455.1,286047002.2,N
1627829456.0,286047002.2,N
1627829475.8,286047000.7,N
1627829495.7,286047000.4,N
1627829515.5,286047000.0,N
1627829535.3,286047002.3,N
1627829555.2,286047001.7,N
1627829575.9,286047001.5,N
1627829595.7,286047001.4,N
1627829615.6,286047004.0,N
1627829635.4,286047004.2,N
1627829655.2,286047003.9,N
1627829675.1,286047003.6,N
1627829676.0,286047003.6,N
1627829695.8,286047003.4,N
1627829715.7,286047003.9,N
1627829735.5,286047004.2,N
1627829755.3,286047001.6,N
1627829775.2,286047001.3,N
1627829795.0,286047004.2,N
1627829795.9,286047004.2,N
1627829815.7,286047004.4,N
1627829835.6,286047001.7,N
1627829855.4,286046999.8,N
1627829875.3,286046999.8,N
1627829895.1,286047002.6,N
1627829896.0,286047002.6,N
1627829915.8,286046999.8,N
1627829935.7,286047000.7,N
1627829955.5,286046998.5,N
1627829975.3,286047001.0,N
1627829995.2,286047002.4,N
